شیراز, ایران

03:08 PM +0430 on ژوئیه 22, 2018 (GMT +0430)
Shahid Dastghaib International | | Change Station

Elev 4875 ft 29.53 °N, 52.58 °E | Updated 8 minutes ago

صاف
صاف
102 °F
Feels Like 102 °F
N
7
باد متغير باد from جنوب

امروز
High -- | Low -- °F
--% Chance of Precip.
دیروز
High -- | Low -- °F
Precip. -- در
فشار 29.71 در
ديد 5.0 مايل، ميل (در برابر كيلومتر
ابری بیشتر ابری 4000 ft
قطره شبنم 23 °F
رطوبت 6%
بارش باران 0.00 در
برف عمیق Not available.
6:12 AM 7:56 PM
Waxing Gibbous, 75% visible
METAR OISS 221030Z 18006KT 8000 BKN040 39/M05 Q1006 A2973
فشار 29.71 در
ديد 5.0 مايل، ميل (در برابر كيلومتر
ابری بیشتر ابری 4000 ft
قطره شبنم 23 °F
رطوبت 6%
بارش باران 0.00 در
برف عمیق Not available.
6:12 AM 7:56 PM
Waxing Gibbous, 75% visible
METAR OISS 221030Z 18006KT 8000 BKN040 39/M05 Q1006 A2973

Get Severe Weather Alerts

Thanks for signing up!

Be on the lookout for a verification email in your inbox.

You'll start receiving the daily forecast at 6 AM.

×

10-Day Weather Forecast

No radar image for this location.
×

Almanac

ستاره شناسی

Jul. 22, 2018 Rise Set
وقت حقیقی
تاریک و روشن اجتماعی
تاریک روشن دریایی
شفق و فلق نجومی
ماه
میزان روشنایی روز
طول روز
Tomorrow will be .
, % of the Moon is Illuminated

Today's Extremes

Country Highs Country Lows

Community

WunderPhotos

Category 6

Welcome to Category 6. This is the collective home for Weather Underground's featured writeups by Dr. Jeff Masters (right), Bob Henson (left), Chris Burt, and other regular contributors.

Nearby

تمیزی هوا

  تمیزی هوا AQ Index آلاینده
Not available.

عمق برف

Station Depth Elevation

Earthquake Activity

شهر Distance Mag. Time & Date
Minimum magnitude displayed is 2.5.

Coastal Water Temperatures

منطقه درجه حرارت

Stations

Nearby Weather Stations

Station Location دما باد سرد قطره شبنم رطوبت باد Precip. Elev ارتقا دادن Type